Location: Seattle
(47.6064°N, 122.3308°W)
Time: 00:38:17
(UTC-07:00)

ISS - Visible Passes

Search period start: 16 April 2024 00:00
Search period end: 26 April 2024 00:00
Orbit: 413 x 419 km, 51.6° (Epoch: 16 April)

Date Brightness Start Highest point End Pass type
(mag) Time Alt. Az. Time Alt. Az. Time Alt. Az.
21 Apr -1.3 05:03:27 10° S 05:05:28 15° SE 05:07:29 10° E visible
23 Apr -2.6 05:01:16 12° SSW 05:03:55 33° SE 05:06:58 10° ENE visible
24 Apr -2.0 04:14:07 19° SSE 04:15:01 22° SE 04:17:38 10° E visible
25 Apr -1.2 03:26:51 13° ESE 03:26:51 13° ESE 03:27:53 10° ESE visible
25 Apr -3.7 04:59:42 15° SW 05:02:19 72° SSE 05:05:39 10° ENE visible
